Location: Forst
(46.9333°N, 15.4333°E)
Time: 16:24:36
(UTC+00:00)

Cosmos 2228 Rocket - Pass Details

Date: 01 December 2020
Orbit: 618 x 652 km, 82.5° (Epoch: 27 January)

Event Time Altitude Azimuth Distance (km) Brightness Sun altitude
Rises 17:26:19 0° 188° (S) 2,948 6.8 -22.3°
Reaches altitude 10° 17:28:34 10° 189° (S) 2,038 5.9 -22.7°
Maximum altitude 17:33:06 86° 277° (W) 650 3.1 -23.5°
Enters shadow 17:34:25 46° 4° (N) 859 3.6 -23.7°
